Location: Newark
(34.1333°N, 7.9667°W)
Time: 15:17:41
(UTC+00:00)

S-56A Canister/Altair - Pass Details

Date: 10 December 2021
Orbit: 634 x 2499 km, 38.9° (Epoch: 25 January)

Event Time Altitude Azimuth Distance (km) Brightness Sun altitude
Rises 19:06:00 0° 201° (SSW) 6,146 12.6 -20.8°
Reaches altitude 10° 19:10:52 10° 191° (S) 5,150 12.0 -21.8°
Maximum altitude 19:22:38 29° 139° (SE) 3,565 10.6 -24.1°
Enters shadow 19:26:27 26° 114° (ESE) 3,610 10.4 -24.9°
